Content
SEND FEEDBACK

Daily
Averages
Monthly
Summary
United States of America

DAHLONEGA, GEORGIA


Home > North America > United States > Georgia
Elevation: 431 meters     Latitude: 34 32N     Longitude: 083 59W

WEATHER
 
SELECT A DAY
Number of Records: 206,799;   Date Range: 7/1/96 - 9/30/14
 
SHARE

PRINT THIS DATA

[ ← Previous Day ]
WEATHER ALMANAC - 23 JANUARY, 2013
[ Next Day → ]
[ °F ]   °C
Weather ElementAverageHighLow
Temperature3.4 °C8.9 °C (3:53 pm)-2.2 °C (4:53 am)
Dewpoint-6.7 °C0 °C (11:34 pm)-12.2 °C (1:53 am)
Humidity48.1 %61 % (11:34 pm)37 % (3:53 pm)
Barometer1025.4 hPa1028.1 hPa (9:53 am)1021.3 hPa (11:34 pm)
Wind Speed11.4 km/h24.1 km/h (1:53 pm)
Wind Gust40.7 km/h (1:53 pm)
Weather ElementAverage
Visibility16.1 km
Wind DirectionWSW (247.7 °)

Weather ElementTotal
Precipitation---
Heating Degree Days15 (Base 18.3)
Averaged from 22 records on 23 January, 2013
WEATHER CONDITIONS BREAKOUT
WIND DIRECTION BREAKOUT
WEATHER BY HOUR - 23 JANUARY, 2013
[ °F ]   °C
Local TimeTemperatureDewpointHumidityBarometerVisibilityWind DirectionWind SpeedGust SpeedPrecipitationEventsConditions
1:53 AM-1.1 °C-12.2 °C43 %1026.4 hPa16.1 kmWest (270°)13 km/hPartly Cloudy
2:53 AM-1.7 °C-11.7 °C47 %1026.4 hPa16.1 kmWest (260°)13 km/hClear
3:53 AM-1.7 °C-11.1 °C49 %1026.4 hPa16.1 kmWest (270°)7.4 km/hClear
4:53 AM-2.2 °C-11.1 °C51 %1026.4 hPa16.1 kmWest (280°)5.6 km/hClear
5:53 AM-2.2 °C-10.6 °C53 %1026.8 hPa16.1 kmWest (280°)5.6 km/hClear
6:53 AM-2.2 °C-9.4 °C58 %1027.1 hPa16.1 kmWest (260°)7.4 km/hOvercast
7:53 AM-2.2 °C-10.6 °C53 %1027.8 hPa16.1 kmCalmMostly Cloudy
8:53 AM-0.6 °C-8.9 °C54 %1027.8 hPa16.1 kmWest (280°)5.6 km/hClear
9:53 AM1.7 °C-8.9 °C46 %1028.1 hPa16.1 kmWSW (250°)11.1 km/hClear
10:53 AM3.9 °C-8.3 °C41 %1028.1 hPa16.1 kmWNW (290°)14.8 km/hClear
11:53 AM6.1 °C-6.7 °C40 %1027.4 hPa16.1 kmWest (280°)14.8 km/h27.8 km/hClear
12:53 PM7.2 °C-6.1 °C39 %1026.1 hPa16.1 kmWest (260°)22.2 km/h31.5 km/hMostly Cloudy
1:53 PM7.8 °C-3.9 °C44 %1025.1 hPa16.1 kmWNW (290°)24.1 km/h40.7 km/hClear
2:53 PM8.3 °C-3.9 °C42 %1024.4 hPa16.1 kmWNW (290°)22.2 km/h35.2 km/hClear
3:53 PM8.9 °C-5 °C37 %1024 hPa16.1 kmWest (280°)16.7 km/hClear
4:53 PM8.3 °C-4.4 °C41 %1023.4 hPa16.1 kmWSW (240°)16.7 km/hClear
5:53 PM7.8 °C-3.9 °C44 %1023.4 hPa16.1 kmWest (270°)11.1 km/hClear
6:53 PM5.6 °C-3.9 °C51 %1023.4 hPa16.1 kmWest (260°)9.3 km/hClear
7:53 PM6.1 °C-3.3 °C51 %1022.7 hPa16.1 kmWNW (290°)5.6 km/hClear
8:53 PM5 °C-3.3 °C55 %1023 hPa16.1 kmCalmClear
10:53 PM6.7 °C-1.1 °C58 %1021.7 hPa16.1 kmWest (280°)11.1 km/hOvercast
11:34 PM7 °C0 °C61 %1021.3 hPa16.1 kmWest (270°)14.8 km/hOvercast
Hourly data recorded from KGVL, located 0 kilometers away from Dahlonega, Georgia







STORIES FROM OUR PARTNERS